Location: Bohy
(49.9380°N, 13.5753°E)
Time: 21:32:52
(UTC+00:00)

Cosmos 2218 Rocket - Pass Details

Date: 19 May 2025
Orbit: 955 x 1005 km, 82.9° (Epoch: 15 June)

Event Time Altitude Azimuth Distance (km) Brightness Sun altitude
Rises 20:31:58 0° 350° (N) 3,739 8.3 -12.6°
Reaches altitude 10° 20:34:32 10° 351° (N) 2,781 7.4 -12.8°
Maximum altitude 20:40:57 85° 81° (E) 1,003 4.0 -13.4°
Enters shadow 20:46:02 17° 169° (S) 2,288 5.4 -13.9°
